Location: Newark
(36.0000°N, 138.0000°E)
Time: 21:55:08
(UTC+00:00)

Hubble Space Telescope - Visible Passes

Search period start: 18 March 2019 00:00
Search period end: 28 March 2019 00:00
Orbit: 537 x 540 km, 28.5° (Epoch: 17 March)

Date Brightness Start Highest point End Pass type
(mag) Time Alt. Az. Time Alt. Az. Time Alt. Az.
23 Mar 3.4 10:54:35 10° SSW 10:54:45 11° SSW 10:54:45 11° SSW visible
24 Mar 2.8 10:43:40 10° SSW 10:45:13 16° S 10:45:13 16° S visible
25 Mar 2.4 10:32:51 10° SW 10:35:37 21° S 10:35:37 21° S visible
26 Mar 2.1 10:22:06 10° SW 10:25:24 23° S 10:25:56 22° SSE visible
27 Mar 2.1 10:11:25 10° SW 10:14:50 25° S 10:16:12 21° SE visible
